星链-35557(STARLINK-35557)

导读

STARLINK-35557是美国SpaceX星链星座的成员,于2025年10月29日发射。星链项目旨在构建全球卫星互联网星座,为全球提供高速低延迟的宽带服务,该卫星加入星座后,进一步扩充了星链低轨卫星网络规模,助力推进全球覆盖与服务能力的提升。

基本信息
目录编号:
66237
目录名称:
STARLINK-35557
国际标识:
2025-245D
轨道中心:
EARTH
卫星名称:
星链-35557
卫星全名:
星链-35557(STARLINK-35557)
卫星状态:
在轨 (已飞行311 天)
发射日期:
2025-10-29 UTC
国别 :
美国 (US)
星等 :
--
轨道信息
数据来源 国际轨道数据
星历时间: 2026-09-05T12:44:06+0800
12小时前
查看轨道信息
半长轴: 6840.826km
偏心率: 0.0001193
轨道倾角: 53.157°
近地点辐角 87.241°
升交点赤经 165.585°
平近点角 272.873°
近地点: 461.872km
远地点: 463.506km
周期: 93.847分钟
每日圈数: 15.34405
详细信息
固有亮度:
5
最大亮度:
2.5
卫星平台:
Starlink V1.0
覆盖范围:
全球
运营商:
太空探索技术公司
运营商所在国:
美国
制造商(研发单位):
太空探索技术公司
制造商所在国:
美国
使用方式:
暂无
卫星简介
Starlink 计划是 SpaceX 推出的全球卫星互联网项目,通过发射低轨道卫星,为全球尤其是偏远地区提供高速、低延迟的互联网服务。自 2019 年起,Starlink 已部署数千颗卫星,旨在缩小全球数字鸿沟,推动互联网普及。该项目还为军事、航空等行业提供通信支持,带来广泛经济效益。
2D轨道图
3D轨道图
轨道高度分析图
轨道倾角分析图
轨道综合分析图
查看轨道综合分析图
交会数据列表
事件ID 空间交会对象 最接近时刻(TCA) 交会距离 交会风险概率(CRP) 交会风险指数(CRI) 操作
CDM_260908-021206-002306-623721
2026-09-08T
02:12:34+0000
0.705 km
远距离
7.267795E-5 中风险 0.72
CDM_260908-003806-002306-623721
2026-09-08T
00:38:46+0000
1.294 km
极远距离
9.534788E-6 低风险 0.55
CDM_260906-093205-827606-623722
GENMAT-1 (58276)
2026-09-06T
09:32:48+0000
2.314 km
极远距离
2.030826E-6 低风险 0.41
CDM_260908-034606-002306-623721
2026-09-08T
03:46:21+0000
2.262 km
极远距离
1.87731E-6 低风险 0.4
CDM_260907-230406-002306-623721
2026-09-07T
23:04:59+0000
2.879 km
极远距离
1.246838E-6 低风险 0.37